START_TIME,STEP,MOV.,M34,t_acc.,L5,t_acc.,L18,t_acc.,L14,t_acc.
1979-03-02 03:00:14.170 ,5,1,0.,12.0,0.,12.0,0.,12.0,0.,12.0
1979-03-02 03:00:26.170 ,5,1,0.,12.0,1.,12.0,0.,12.0,0.,12.0
1979-03-02 03:00:38.170 ,6,1,0.,12.0,0.,12.0,0.,12.0,0.,12.0
1979-03-02 03:00:50.170 ,6,1,1.,12.0,0.,12.0,0.,12.0,0.,12.0
1979-03-02 03:01:02.170 ,7,1,1.,12.0,0.,12.0,0.,12.0,0.,12.0
1979-03-02 03:01:14.170 ,7,1,0.,12.0,10.,12.0,0.,12.0,0.,12.0
1979-03-02 03:01:26.160 ,7,1,0.,12.0,16.,12.0,0.,12.0,0.,12.0
1979-03-02 03:01:38.170 ,7,1,0.,12.0,19.,12.0,0.,12.0,0.,12.0
1979-03-02 03:01:50.170 ,6,1,0.,12.0,20.,12.0,0.,12.0,0.,12.0
1979-03-02 03:02:02.170 ,6,1,1.,12.0,7.,12.0,0.,12.0,0.,12.0
1979-03-02 03:02:14.160 ,5,1,0.,12.0,2.,12.0,0.,12.0,0.,12.0
1979-03-02 03:02:26.170 ,5,1,0.,12.0,0.,12.0,0.,12.0,0.,12.0
1979-03-02 03:02:38.160 ,4,1,0.,12.0,0.,12.0,0.,12.0,0.,12.0
1979-03-02 03:02:50.170 ,4,1,0.,12.0,1.,12.0,0.,12.0,0.,12.0
1979-03-02 03:03:02.160 ,3,1,0.,12.0,0.,12.0,0.,12.0,0.,12.0
1979-03-02 03:03:14.170 ,3,1,0.,12.0,0.,12.0,0.,12.0,0.,12.0
1979-03-02 03:03:26.160 ,2,1,0.,12.0,0.,12.0,0.,12.0,0.,12.0
1979-03-02 03:03:38.170 ,2,1,0.,12.0,0.,12.0,0.,12.0,0.,12.0
1979-03-02 03:03:50.160 ,1,1,0.,12.0,1.,12.0,0.,12.0,0.,12.0
1979-03-02 03:04:02.170 ,1,1,0.,12.0,0.,12.0,0.,12.0,0.,12.0
1979-03-02 03:04:14.160 ,0,1,0.,12.0,0.,12.0,0.,12.0,0.,12.0
1979-03-02 03:04:26.170 ,0,1,1.,12.0,0.,12.0,0.,12.0,0.,12.0
1979-03-02 03:04:38.170 ,0,1,0.,12.0,1.,12.0,0.,12.0,0.,12.0
1979-03-02 03:04:50.170 ,0,1,0.,12.0,1.,12.0,0.,12.0,0.,12.0
1979-03-02 03:05:02.170 ,1,1,0.,12.0,0.,12.0,0.,12.0,0.,12.0
1979-03-02 03:05:14.170 ,1,1,1.,12.0,0.,12.0,0.,12.0,0.,12.0
1979-03-02 03:05:26.170 ,2,1,0.,12.0,0.,12.0,0.,12.0,0.,12.0
1979-03-02 03:05:38.170 ,2,1,0.,12.0,0.,12.0,0.,12.0,0.,12.0
1979-03-02 03:05:50.170 ,3,1,0.,12.0,1.,12.0,0.,12.0,0.,12.0
1979-03-02 03:06:02.170 ,3,1,0.,12.0,0.,12.0,0.,12.0,0.,12.0
1979-03-02 03:06:14.170 ,4,1,0.,12.0,0.,12.0,0.,12.0,0.,12.0
1979-03-02 03:06:26.170 ,4,1,0.,12.0,0.,12.0,0.,12.0,0.,12.0
1979-03-02 03:06:38.170 ,5,1,0.,12.0,0.,12.0,0.,12.0,0.,12.0
1979-03-02 03:06:50.170 ,5,1,0.,12.0,2.,12.0,0.,12.0,0.,12.0
1979-03-02 03:07:02.170 ,6,1,0.,12.0,1.,12.0,0.,12.0,0.,12.0
1979-03-02 03:07:14.170 ,6,1,1.,12.0,2.,12.0,0.,12.0,0.,12.0
1979-03-02 03:07:26.170 ,7,1,1.,12.0,1.,12.0,0.,12.0,0.,12.0
1979-03-02 03:07:38.170 ,7,1,0.,12.0,12.,12.0,0.,12.0,0.,12.0
1979-03-02 03:07:50.170 ,7,1,0.,12.0,11.,12.0,0.,12.0,0.,12.0
1979-03-02 03:08:02.170 ,7,1,0.,12.0,16.,12.0,0.,12.0,0.,12.0
1979-03-02 03:08:14.170 ,6,1,0.,12.0,19.,12.0,0.,12.0,0.,12.0
1979-03-02 03:08:26.170 ,6,1,0.,12.0,4.,12.0,0.,12.0,0.,12.0
1979-03-02 03:08:38.170 ,5,1,0.,12.0,2.,12.0,0.,12.0,0.,12.0
1979-03-02 03:08:50.170 ,5,1,1.,12.0,0.,12.0,0.,12.0,0.,12.0
1979-03-02 03:09:02.170 ,4,1,0.,12.0,1.,12.0,0.,12.0,0.,12.0
1979-03-02 03:09:14.170 ,4,1,0.,12.0,0.,12.0,0.,12.0,0.,12.0
1979-03-02 03:09:26.170 ,3,1,0.,12.0,1.,12.0,0.,12.0,0.,12.0
1979-03-02 03:09:38.170 ,3,1,0.,12.0,0.,12.0,0.,12.0,0.,12.0
1979-03-02 03:09:50.170 ,2,1,0.,12.0,0.,12.0,0.,12.0,0.,12.0
1979-03-02 03:10:02.170 ,2,1,0.,12.0,1.,12.0,0.,12.0,0.,12.0
1979-03-02 03:10:14.170 ,1,1,0.,12.0,1.,12.0,0.,12.0,0.,12.0
1979-03-02 03:10:26.170 ,1,1,0.,12.0,1.,12.0,0.,12.0,0.,12.0
1979-03-02 03:10:38.170 ,0,1,0.,12.0,0.,12.0,0.,12.0,0.,12.0
1979-03-02 03:10:50.170 ,0,1,0.,12.0,0.,12.0,0.,12.0,0.,12.0
1979-03-02 03:11:02.170 ,0,1,0.,12.0,1.,12.0,0.,12.0,0.,12.0
1979-03-02 03:11:14.170 ,0,1,0.,12.0,0.,12.0,0.,12.0,0.,12.0
1979-03-02 03:11:26.170 ,1,1,0.,12.0,0.,12.0,0.,12.0,0.,12.0
1979-03-02 03:11:38.170 ,1,1,0.,12.0,1.,12.0,0.,12.0,0.,12.0
1979-03-02 03:11:50.170 ,2,1,0.,12.0,2.,12.0,0.,12.0,0.,12.0
1979-03-02 03:12:02.170 ,2,1,0.,12.0,0.,12.0,0.,12.0,0.,12.0
1979-03-02 03:12:14.170 ,3,1,0.,12.0,0.,12.0,0.,12.0,0.,12.0
1979-03-02 03:12:26.170 ,3,1,0.,12.0,0.,12.0,0.,12.0,0.,12.0
1979-03-02 03:12:38.170 ,4,1,1.,12.0,0.,12.0,0.,12.0,0.,12.0
1979-03-02 03:12:50.170 ,4,1,0.,12.0,1.,12.0,0.,12.0,0.,12.0
1979-03-02 03:13:02.170 ,5,1,0.,12.0,0.,12.0,0.,12.0,0.,12.0
1979-03-02 03:13:14.170 ,5,1,1.,12.0,0.,12.0,0.,12.0,0.,12.0
1979-03-02 03:13:26.170 ,6,1,0.,12.0,1.,12.0,0.,12.0,0.,12.0
1979-03-02 03:13:38.170 ,6,1,1.,12.0,0.,12.0,0.,12.0,0.,12.0
1979-03-02 03:13:50.170 ,7,1,0.,12.0,1.,12.0,0.,12.0,0.,12.0
1979-03-02 03:14:02.170 ,7,1,0.,12.0,10.,12.0,0.,12.0,0.,12.0
1979-03-02 03:14:14.170 ,7,1,0.,12.0,13.,12.0,0.,12.0,0.,12.0
1979-03-02 03:14:26.170 ,7,1,0.,12.0,10.,12.0,0.,12.0,0.,12.0
1979-03-02 03:14:38.170 ,6,1,0.,12.0,20.,12.0,0.,12.0,0.,12.0
1979-03-02 03:14:50.170 ,6,1,0.,12.0,3.,12.0,0.,12.0,0.,12.0
1979-03-02 03:15:02.170 ,5,1,0.,12.0,2.,12.0,0.,12.0,0.,12.0
1979-03-02 03:15:14.170 ,5,1,0.,12.0,0.,12.0,0.,12.0,0.,12.0
1979-03-02 03:15:26.170 ,4,1,0.,12.0,1.,12.0,0.,12.0,0.,12.0
1979-03-02 03:15:38.170 ,4,1,1.,12.0,0.,12.0,0.,12.0,0.,12.0
1979-03-02 03:15:50.170 ,3,1,0.,12.0,0.,12.0,0.,12.0,0.,12.0
1979-03-02 03:16:02.170 ,3,1,0.,12.0,0.,12.0,0.,12.0,0.,12.0
1979-03-02 03:16:14.170 ,2,1,0.,12.0,2.,12.0,0.,12.0,0.,12.0
1979-03-02 03:16:26.170 ,2,1,0.,12.0,1.,12.0,0.,12.0,0.,12.0
1979-03-02 03:16:38.170 ,1,1,1.,12.0,1.,12.0,0.,12.0,0.,12.0
1979-03-02 03:16:50.170 ,1,1,0.,12.0,0.,12.0,0.,12.0,0.,12.0
1979-03-02 03:17:02.170 ,0,1,0.,12.0,0.,12.0,0.,12.0,0.,12.0
1979-03-02 03:17:14.170 ,0,1,0.,12.0,0.,12.0,0.,12.0,0.,12.0
1979-03-02 03:17:26.160 ,0,1,0.,12.0,0.,12.0,0.,12.0,0.,12.0
1979-03-02 03:17:38.160 ,0,1,0.,12.0,0.,12.0,0.,12.0,1.,12.0
1979-03-02 03:17:50.160 ,1,1,0.,12.0,0.,12.0,0.,12.0,0.,12.0
1979-03-02 03:18:02.160 ,1,1,0.,12.0,1.,12.0,0.,12.0,0.,12.0
1979-03-02 03:18:14.160 ,2,1,0.,12.0,2.,12.0,0.,12.0,0.,12.0
1979-03-02 03:18:26.160 ,2,1,0.,12.0,1.,12.0,0.,12.0,0.,12.0
1979-03-02 03:18:38.160 ,3,1,0.,12.0,1.,12.0,0.,12.0,0.,12.0
1979-03-02 03:18:50.160 ,3,1,0.,12.0,1.,12.0,0.,12.0,0.,12.0
1979-03-02 03:19:02.160 ,4,1,0.,12.0,0.,12.0,0.,12.0,0.,12.0
1979-03-02 03:19:14.160 ,4,1,1.,12.0,0.,12.0,0.,12.0,0.,12.0
1979-03-02 03:19:26.160 ,5,1,0.,12.0,0.,12.0,0.,12.0,0.,12.0
1979-03-02 03:19:38.160 ,5,1,0.,12.0,1.,12.0,0.,12.0,0.,12.0
1979-03-02 03:19:50.160 ,6,1,0.,12.0,1.,12.0,0.,12.0,0.,12.0
1979-03-02 03:20:02.160 ,6,1,0.,12.0,1.,12.0,0.,12.0,0.,12.0
1979-03-02 03:20:14.160 ,7,1,1.,12.0,0.,12.0,0.,12.0,0.,12.0
1979-03-02 03:20:26.160 ,7,1,0.,12.0,11.,12.0,0.,12.0,0.,12.0
1979-03-02 03:20:38.160 ,7,1,0.,12.0,16.,12.0,0.,12.0,0.,12.0
1979-03-02 03:20:50.160 ,7,1,0.,12.0,16.,12.0,0.,12.0,0.,12.0
1979-03-02 03:21:02.160 ,6,1,0.,12.0,12.,12.0,0.,12.0,0.,12.0
1979-03-02 03:21:14.160 ,6,1,0.,12.0,4.,12.0,0.,12.0,0.,12.0
1979-03-02 03:21:26.160 ,5,1,0.,12.0,4.,12.0,0.,12.0,0.,12.0
1979-03-02 03:21:38.160 ,5,1,0.,12.0,0.,12.0,0.,12.0,0.,12.0
1979-03-02 03:21:50.160 ,4,1,0.,12.0,0.,12.0,0.,12.0,0.,12.0
1979-03-02 03:22:02.160 ,4,1,1.,12.0,1.,12.0,0.,12.0,0.,12.0
1979-03-02 03:22:14.160 ,3,1,1.,12.0,0.,12.0,0.,12.0,0.,12.0
1979-03-02 03:22:26.160 ,3,1,0.,12.0,0.,12.0,0.,12.0,0.,12.0
1979-03-02 03:22:38.160 ,2,1,0.,12.0,0.,12.0,0.,12.0,0.,12.0
1979-03-02 03:22:50.160 ,2,1,1.,12.0,0.,12.0,0.,12.0,0.,12.0
1979-03-02 03:23:02.170 ,1,1,0.,12.0,0.,12.0,0.,12.0,0.,12.0
1979-03-02 03:23:14.170 ,1,1,0.,12.0,1.,12.0,0.,12.0,0.,12.0
1979-03-02 03:23:26.170 ,0,1,0.,12.0,1.,12.0,0.,12.0,0.,12.0
1979-03-02 03:23:38.170 ,0,1,0.,12.0,0.,12.0,0.,12.0,0.,12.0
1979-03-02 03:23:50.170 ,0,1,0.,12.0,0.,12.0,0.,12.0,0.,12.0
1979-03-02 03:24:02.170 ,0,1,0.,12.0,0.,12.0,0.,12.0,0.,12.0
1979-03-02 03:24:14.170 ,1,1,1.,12.0,0.,12.0,0.,12.0,0.,12.0
1979-03-02 03:24:26.170 ,1,1,0.,12.0,0.,12.0,0.,12.0,0.,12.0
1979-03-02 03:24:38.170 ,2,1,0.,12.0,0.,12.0,0.,12.0,0.,12.0
1979-03-02 03:24:50.170 ,2,1,0.,12.0,1.,12.0,0.,12.0,0.,12.0
1979-03-02 03:25:02.170 ,3,1,0.,12.0,2.,12.0,0.,12.0,0.,12.0
1979-03-02 03:25:14.170 ,3,1,0.,12.0,0.,12.0,0.,12.0,0.,12.0
1979-03-02 03:25:26.170 ,4,1,0.,12.0,0.,12.0,0.,12.0,0.,12.0
1979-03-02 03:25:38.170 ,4,1,0.,12.0,1.,12.0,0.,12.0,0.,12.0
1979-03-02 03:25:50.170 ,5,1,0.,12.0,0.,12.0,0.,12.0,0.,12.0
1979-03-02 03:26:02.170 ,5,1,1.,12.0,0.,12.0,0.,12.0,0.,12.0
1979-03-02 03:26:14.170 ,6,1,1.,12.0,0.,12.0,0.,12.0,0.,12.0
1979-03-02 03:26:26.170 ,6,1,0.,12.0,3.,12.0,0.,12.0,0.,12.0
1979-03-02 03:26:38.170 ,7,1,0.,12.0,1.,12.0,0.,12.0,0.,12.0
1979-03-02 03:26:50.170 ,7,1,0.,12.0,13.,12.0,0.,12.0,0.,12.0
1979-03-02 03:27:02.170 ,7,1,0.,12.0,14.,12.0,0.,12.0,0.,12.0
1979-03-02 03:27:14.170 ,7,1,0.,12.0,15.,12.0,0.,12.0,0.,12.0
1979-03-02 03:27:26.170 ,6,1,0.,12.0,15.,12.0,0.,12.0,1.,12.0
1979-03-02 03:27:38.170 ,6,1,0.,12.0,5.,12.0,0.,12.0,0.,12.0
1979-03-02 03:27:50.170 ,5,1,1.,12.0,1.,12.0,0.,12.0,0.,12.0
1979-03-02 03:28:02.170 ,5,1,0.,12.0,0.,12.0,0.,12.0,0.,12.0
1979-03-02 03:28:14.170 ,4,1,1.,12.0,2.,12.0,0.,12.0,0.,12.0
1979-03-02 03:28:26.170 ,4,1,1.,12.0,1.,12.0,0.,12.0,0.,12.0
1979-03-02 03:28:38.170 ,3,1,1.,12.0,0.,12.0,0.,12.0,0.,12.0
1979-03-02 03:28:50.170 ,3,1,1.,12.0,0.,12.0,0.,12.0,0.,12.0
1979-03-02 03:29:02.170 ,2,1,0.,12.0,0.,12.0,0.,12.0,0.,12.0
1979-03-02 03:29:14.170 ,2,1,0.,12.0,0.,12.0,0.,12.0,0.,12.0
1979-03-02 03:29:26.170 ,1,1,0.,12.0,0.,12.0,0.,12.0,0.,12.0
1979-03-02 03:29:38.170 ,1,1,0.,12.0,0.,12.0,0.,12.0,0.,12.0
1979-03-02 03:29:50.170 ,0,1,0.,12.0,0.,12.0,0.,12.0,0.,12.0
1979-03-02 03:30:02.170 ,0,1,1.,12.0,0.,12.0,0.,12.0,0.,12.0
1979-03-02 03:30:14.170 ,0,1,0.,12.0,0.,12.0,0.,12.0,0.,12.0
1979-03-02 03:30:26.170 ,0,1,0.,12.0,0.,12.0,0.,12.0,0.,12.0
1979-03-02 03:30:38.170 ,1,1,0.,12.0,0.,12.0,0.,12.0,0.,12.0
1979-03-02 03:30:50.170 ,1,1,0.,12.0,0.,12.0,0.,12.0,0.,12.0
1979-03-02 03:31:02.170 ,2,1,0.,12.0,0.,12.0,0.,12.0,0.,12.0
1979-03-02 03:31:14.170 ,2,1,0.,12.0,0.,12.0,0.,12.0,0.,12.0
1979-03-02 03:31:26.170 ,3,1,1.,12.0,2.,12.0,0.,12.0,0.,12.0
1979-03-02 03:31:38.170 ,3,1,0.,12.0,0.,12.0,0.,12.0,0.,12.0
1979-03-02 03:31:50.170 ,4,1,0.,12.0,1.,12.0,0.,12.0,1.,12.0
1979-03-02 03:32:02.170 ,4,1,1.,12.0,0.,12.0,0.,12.0,0.,12.0
1979-03-02 03:32:14.170 ,5,1,0.,12.0,0.,12.0,0.,12.0,0.,12.0
1979-03-02 03:32:26.170 ,5,1,0.,12.0,0.,12.0,0.,12.0,0.,12.0
1979-03-02 03:32:38.170 ,6,1,0.,12.0,0.,12.0,0.,12.0,0.,12.0
1979-03-02 03:32:50.170 ,6,1,1.,12.0,1.,12.0,0.,12.0,0.,12.0
1979-03-02 03:33:02.170 ,7,1,0.,12.0,1.,12.0,0.,12.0,0.,12.0
1979-03-02 03:33:14.170 ,7,1,0.,12.0,13.,12.0,0.,12.0,0.,12.0
1979-03-02 03:33:26.170 ,7,1,0.,12.0,16.,12.0,0.,12.0,0.,12.0
1979-03-02 03:33:38.170 ,7,1,0.,12.0,15.,12.0,0.,12.0,0.,12.0
1979-03-02 03:33:50.170 ,6,1,0.,12.0,18.,12.0,0.,12.0,0.,12.0
1979-03-02 03:34:02.170 ,6,1,0.,12.0,7.,12.0,0.,12.0,0.,12.0
1979-03-02 03:34:14.170 ,5,1,0.,12.0,2.,12.0,0.,12.0,0.,12.0
1979-03-02 03:34:26.170 ,5,1,1.,12.0,0.,12.0,0.,12.0,0.,12.0
1979-03-02 03:34:38.170 ,4,1,1.,12.0,1.,12.0,0.,12.0,0.,12.0
1979-03-02 03:34:50.170 ,4,1,0.,12.0,0.,12.0,0.,12.0,0.,12.0
1979-03-02 03:35:02.170 ,3,1,0.,12.0,0.,12.0,0.,12.0,0.,12.0
1979-03-02 03:35:14.170 ,3,1,0.,12.0,0.,12.0,0.,12.0,0.,12.0
1979-03-02 03:35:26.170 ,2,1,0.,12.0,0.,12.0,0.,12.0,0.,12.0
1979-03-02 03:35:38.170 ,2,1,0.,12.0,0.,12.0,0.,12.0,0.,12.0
1979-03-02 03:35:50.170 ,1,1,0.,12.0,1.,12.0,0.,12.0,0.,12.0
1979-03-02 03:36:02.170 ,1,1,0.,12.0,0.,12.0,0.,12.0,0.,12.0
1979-03-02 03:36:14.170 ,0,1,0.,12.0,1.,12.0,0.,12.0,0.,12.0
1979-03-02 03:36:26.170 ,0,1,0.,12.0,0.,12.0,0.,12.0,0.,12.0
1979-03-02 03:36:38.170 ,0,1,0.,12.0,0.,12.0,0.,12.0,0.,12.0
1979-03-02 03:36:50.170 ,0,1,0.,12.0,0.,12.0,0.,12.0,0.,12.0
1979-03-02 03:37:02.170 ,1,1,,0,,0,,0,,0
1979-03-02 03:37:14.170 ,1,1,0.,12.0,0.,12.0,0.,12.0,0.,12.0
1979-03-02 03:37:26.170 ,2,1,0.,12.0,0.,12.0,0.,12.0,0.,12.0
1979-03-02 03:37:38.170 ,2,1,1.,12.0,1.,12.0,0.,12.0,0.,12.0
1979-03-02 03:37:50.170 ,3,1,0.,12.0,0.,12.0,0.,12.0,0.,12.0
1979-03-02 03:38:02.170 ,3,1,0.,12.0,1.,12.0,0.,12.0,0.,12.0
1979-03-02 03:38:14.170 ,4,1,0.,12.0,0.,12.0,0.,12.0,0.,12.0
1979-03-02 03:38:26.170 ,4,1,1.,12.0,2.,12.0,0.,12.0,0.,12.0
1979-03-02 03:38:38.170 ,5,1,0.,12.0,0.,12.0,0.,12.0,0.,12.0
1979-03-02 03:38:50.170 ,5,1,0.,12.0,1.,12.0,0.,12.0,0.,12.0
1979-03-02 03:39:02.170 ,6,1,0.,12.0,1.,12.0,0.,12.0,0.,12.0
1979-03-02 03:39:14.170 ,6,1,0.,12.0,0.,12.0,0.,12.0,0.,12.0
1979-03-02 03:39:26.170 ,0,0,0.,12.0,0.,12.0,0.,12.0,0.,12.0
1979-03-02 03:39:38.170 ,0,0,0.,12.0,8.,12.0,0.,12.0,0.,12.0
1979-03-02 03:39:50.170 ,7,1,0.,12.0,10.,12.0,0.,12.0,0.,12.0
1979-03-02 03:40:02.170 ,7,1,0.,12.0,16.,12.0,0.,12.0,0.,12.0
1979-03-02 03:40:14.170 ,6,1,0.,12.0,17.,12.0,0.,12.0,0.,12.0
1979-03-02 03:40:26.170 ,6,1,1.,12.0,6.,12.0,0.,12.0,0.,12.0
1979-03-02 03:40:38.170 ,5,1,1.,12.0,1.,12.0,0.,12.0,0.,12.0
1979-03-02 03:40:50.170 ,5,1,2.,12.0,0.,12.0,0.,12.0,0.,12.0
1979-03-02 03:41:02.170 ,4,1,1.,12.0,0.,12.0,0.,12.0,0.,12.0
1979-03-02 03:41:14.170 ,4,1,0.,12.0,3.,12.0,0.,12.0,0.,12.0
1979-03-02 03:41:26.170 ,3,1,0.,12.0,0.,12.0,0.,12.0,0.,12.0
1979-03-02 03:41:38.170 ,3,1,1.,12.0,0.,12.0,0.,12.0,0.,12.0
1979-03-02 03:41:50.170 ,2,1,0.,12.0,1.,12.0,0.,12.0,0.,12.0
1979-03-02 03:42:02.170 ,2,1,0.,12.0,0.,12.0,0.,12.0,0.,12.0
1979-03-02 03:42:14.170 ,1,1,0.,12.0,0.,12.0,0.,12.0,0.,12.0
1979-03-02 03:42:26.170 ,1,1,0.,12.0,0.,12.0,0.,12.0,0.,12.0
1979-03-02 03:42:38.170 ,0,1,0.,12.0,0.,12.0,0.,12.0,0.,12.0
1979-03-02 03:42:50.170 ,0,1,0.,12.0,0.,12.0,0.,12.0,0.,12.0
1979-03-02 03:43:02.170 ,0,1,0.,12.0,0.,12.0,0.,12.0,0.,12.0
1979-03-02 03:43:14.170 ,0,1,1.,12.0,0.,12.0,0.,12.0,0.,12.0
1979-03-02 03:43:26.170 ,1,1,0.,12.0,0.,12.0,0.,12.0,0.,12.0
1979-03-02 03:43:38.170 ,1,1,0.,12.0,1.,12.0,0.,12.0,0.,12.0
1979-03-02 03:43:50.170 ,2,1,0.,12.0,0.,12.0,0.,12.0,0.,12.0
1979-03-02 03:44:02.170 ,2,1,0.,12.0,1.,12.0,0.,12.0,0.,12.0
1979-03-02 03:44:14.170 ,3,1,1.,12.0,1.,12.0,0.,12.0,0.,12.0
1979-03-02 03:44:26.170 ,3,1,0.,12.0,0.,12.0,0.,12.0,0.,12.0
1979-03-02 03:44:38.170 ,4,1,0.,12.0,0.,12.0,0.,12.0,0.,12.0
1979-03-02 03:44:50.170 ,4,1,0.,12.0,0.,12.0,0.,12.0,0.,12.0
1979-03-02 03:45:02.170 ,5,1,0.,12.0,0.,12.0,0.,12.0,0.,12.0
1979-03-02 03:45:14.170 ,5,1,0.,12.0,0.,12.0,0.,12.0,0.,12.0
1979-03-02 03:45:26.170 ,6,1,0.,12.0,5.,12.0,0.,12.0,0.,12.0
1979-03-02 03:45:38.170 ,6,1,0.,12.0,0.,12.0,0.,12.0,0.,12.0
1979-03-02 03:45:50.170 ,7,1,1.,12.0,1.,12.0,0.,12.0,0.,12.0
1979-03-02 03:46:02.170 ,7,1,0.,12.0,9.,12.0,0.,12.0,0.,12.0
1979-03-02 03:46:14.170 ,7,1,0.,12.0,18.,12.0,0.,12.0,0.,12.0
1979-03-02 03:46:26.170 ,7,1,0.,12.0,15.,12.0,0.,12.0,0.,12.0
1979-03-02 03:46:38.170 ,6,1,0.,12.0,21.,12.0,0.,12.0,0.,12.0
1979-03-02 03:46:50.170 ,6,1,0.,12.0,7.,12.0,0.,12.0,0.,12.0
1979-03-02 03:47:02.170 ,5,1,0.,12.0,0.,12.0,0.,12.0,0.,12.0
1979-03-02 03:47:14.170 ,5,1,1.,12.0,1.,12.0,0.,12.0,0.,12.0
1979-03-02 03:47:26.170 ,4,1,2.,12.0,0.,12.0,0.,12.0,0.,12.0
1979-03-02 03:47:38.170 ,4,1,0.,12.0,0.,12.0,0.,12.0,0.,12.0
1979-03-02 03:47:50.170 ,3,1,0.,12.0,1.,12.0,0.,12.0,0.,12.0
1979-03-02 03:48:02.170 ,3,1,1.,12.0,0.,12.0,0.,12.0,0.,12.0
1979-03-02 03:48:14.170 ,2,1,0.,12.0,0.,12.0,0.,12.0,0.,12.0
1979-03-02 03:48:26.170 ,2,1,0.,12.0,0.,12.0,0.,12.0,0.,12.0
1979-03-02 03:48:38.170 ,1,1,0.,12.0,0.,12.0,0.,12.0,0.,12.0
1979-03-02 03:48:50.170 ,1,1,0.,12.0,0.,12.0,0.,12.0,0.,12.0
1979-03-02 03:49:02.170 ,0,1,0.,12.0,0.,12.0,0.,12.0,0.,12.0
1979-03-02 03:49:14.170 ,0,1,0.,12.0,0.,12.0,0.,12.0,0.,12.0
1979-03-02 03:49:26.170 ,0,1,0.,12.0,0.,12.0,0.,12.0,0.,12.0
1979-03-02 03:49:38.170 ,0,1,0.,12.0,1.,12.0,0.,12.0,0.,12.0
1979-03-02 03:49:50.170 ,1,1,0.,12.0,1.,12.0,0.,12.0,0.,12.0
1979-03-02 03:50:02.170 ,1,1,0.,12.0,0.,12.0,0.,12.0,0.,12.0
1979-03-02 03:50:14.170 ,2,1,0.,12.0,0.,12.0,0.,12.0,0.,12.0
1979-03-02 03:50:26.170 ,2,1,0.,12.0,1.,12.0,0.,12.0,0.,12.0
1979-03-02 03:50:38.170 ,3,1,0.,12.0,1.,12.0,0.,12.0,0.,12.0
1979-03-02 03:50:50.170 ,3,1,0.,12.0,3.,12.0,0.,12.0,0.,12.0
1979-03-02 03:51:02.170 ,4,1,0.,12.0,0.,12.0,0.,12.0,0.,12.0
1979-03-02 03:51:14.170 ,4,1,0.,12.0,1.,12.0,0.,12.0,0.,12.0
1979-03-02 03:51:26.170 ,5,1,1.,12.0,1.,12.0,0.,12.0,0.,12.0
1979-03-02 03:51:38.170 ,5,1,0.,12.0,1.,12.0,0.,12.0,0.,12.0
1979-03-02 03:51:50.170 ,6,1,0.,12.0,3.,12.0,0.,12.0,0.,12.0
1979-03-02 03:52:02.170 ,6,1,0.,12.0,0.,12.0,0.,12.0,0.,12.0
1979-03-02 03:52:14.170 ,7,1,0.,12.0,0.,12.0,0.,12.0,1.,12.0
1979-03-02 03:52:26.170 ,7,1,0.,12.0,11.,12.0,0.,12.0,0.,12.0
1979-03-02 03:52:38.170 ,7,1,0.,12.0,15.,12.0,0.,12.0,0.,12.0
1979-03-02 03:52:50.170 ,7,1,0.,12.0,8.,12.0,0.,12.0,0.,12.0
1979-03-02 03:53:02.170 ,6,1,0.,12.0,14.,12.0,0.,12.0,0.,12.0
1979-03-02 03:53:14.170 ,6,1,0.,12.0,7.,12.0,0.,12.0,0.,12.0
1979-03-02 03:53:26.170 ,5,1,0.,12.0,1.,12.0,0.,12.0,0.,12.0
1979-03-02 03:53:38.170 ,5,1,0.,12.0,2.,12.0,0.,12.0,0.,12.0
1979-03-02 03:53:50.170 ,4,1,0.,12.0,1.,12.0,0.,12.0,0.,12.0
1979-03-02 03:54:02.170 ,4,1,0.,12.0,2.,12.0,0.,12.0,0.,12.0
1979-03-02 03:54:14.170 ,3,1,0.,12.0,0.,12.0,0.,12.0,0.,12.0
1979-03-02 03:54:26.170 ,3,1,0.,12.0,0.,12.0,0.,12.0,0.,12.0
1979-03-02 03:54:38.170 ,2,1,1.,12.0,0.,12.0,0.,12.0,0.,12.0
1979-03-02 03:54:50.170 ,2,1,1.,12.0,1.,12.0,0.,12.0,0.,12.0
1979-03-02 03:55:02.170 ,1,1,0.,12.0,2.,12.0,0.,12.0,0.,12.0
1979-03-02 03:55:14.170 ,1,1,0.,12.0,1.,12.0,0.,12.0,0.,12.0
1979-03-02 03:55:26.170 ,0,1,0.,12.0,1.,12.0,0.,12.0,0.,12.0
1979-03-02 03:55:38.170 ,0,1,0.,12.0,0.,12.0,0.,12.0,0.,12.0
1979-03-02 03:55:50.170 ,0,1,0.,12.0,2.,12.0,0.,12.0,0.,12.0
1979-03-02 03:56:02.170 ,0,1,1.,12.0,0.,12.0,0.,12.0,0.,12.0
1979-03-02 03:56:14.170 ,1,1,0.,12.0,1.,12.0,0.,12.0,0.,12.0
1979-03-02 03:56:26.170 ,1,1,0.,12.0,0.,12.0,0.,12.0,0.,12.0
1979-03-02 03:56:38.170 ,2,1,0.,12.0,1.,12.0,0.,12.0,0.,12.0
1979-03-02 03:56:50.170 ,2,1,0.,12.0,0.,12.0,0.,12.0,0.,12.0
1979-03-02 03:57:02.170 ,3,1,0.,12.0,1.,12.0,0.,12.0,0.,12.0
1979-03-02 03:57:14.170 ,3,1,1.,12.0,1.,12.0,0.,12.0,0.,12.0
1979-03-02 03:57:26.170 ,4,1,0.,12.0,2.,12.0,0.,12.0,0.,12.0
1979-03-02 03:57:38.170 ,4,1,1.,12.0,1.,12.0,0.,12.0,0.,12.0
1979-03-02 03:57:50.170 ,5,1,1.,12.0,2.,12.0,0.,12.0,0.,12.0
1979-03-02 03:58:02.170 ,5,1,0.,12.0,1.,12.0,0.,12.0,0.,12.0
1979-03-02 03:58:14.170 ,6,1,1.,12.0,1.,12.0,0.,12.0,0.,12.0
1979-03-02 03:58:26.170 ,6,1,0.,12.0,1.,12.0,0.,12.0,0.,12.0
1979-03-02 03:58:38.170 ,7,1,0.,12.0,0.,12.0,0.,12.0,0.,12.0
1979-03-02 03:58:50.170 ,7,1,0.,12.0,12.,12.0,0.,12.0,0.,12.0
1979-03-02 03:59:02.170 ,7,1,0.,12.0,15.,12.0,0.,12.0,0.,12.0
1979-03-02 03:59:14.170 ,7,1,0.,12.0,13.,12.0,0.,12.0,0.,12.0
1979-03-02 03:59:26.170 ,6,1,0.,12.0,17.,12.0,0.,12.0,0.,12.0
1979-03-02 03:59:38.170 ,6,1,0.,12.0,7.,12.0,0.,12.0,0.,12.0
1979-03-02 03:59:50.170 ,5,1,0.,12.0,0.,12.0,0.,12.0,1.,12.0
1979-03-02 04:00:02.170 ,5,1,1.,12.0,1.,12.0,0.,12.0,0.,12.0
1979-03-02 04:00:14.170 ,4,1,0.,12.0,1.,12.0,0.,12.0,0.,12.0
1979-03-02 04:00:26.170 ,4,1,0.,12.0,1.,12.0,0.,12.0,0.,12.0
1979-03-02 04:00:38.170 ,3,1,0.,12.0,0.,12.0,0.,12.0,0.,12.0
1979-03-02 04:00:50.170 ,3,1,1.,12.0,0.,12.0,0.,12.0,0.,12.0
1979-03-02 04:01:02.170 ,2,1,0.,12.0,1.,12.0,0.,12.0,0.,12.0
1979-03-02 04:01:14.170 ,2,1,0.,12.0,4.,12.0,0.,12.0,0.,12.0
1979-03-02 04:01:26.170 ,1,1,0.,12.0,0.,12.0,0.,12.0,0.,12.0
1979-03-02 04:01:38.170 ,1,1,0.,12.0,0.,12.0,0.,12.0,0.,12.0
1979-03-02 04:01:50.170 ,0,1,0.,12.0,1.,12.0,0.,12.0,0.,12.0
1979-03-02 04:02:02.170 ,0,1,0.,12.0,1.,12.0,0.,12.0,0.,12.0
1979-03-02 04:02:14.170 ,0,1,0.,12.0,1.,12.0,0.,12.0,0.,12.0
1979-03-02 04:02:26.170 ,0,1,0.,12.0,1.,12.0,0.,12.0,0.,12.0
1979-03-02 04:02:38.170 ,1,1,0.,12.0,0.,12.0,0.,12.0,0.,12.0
1979-03-02 04:02:50.170 ,1,1,0.,12.0,0.,12.0,0.,12.0,0.,12.0
1979-03-02 04:03:02.170 ,2,1,0.,12.0,0.,12.0,0.,12.0,0.,12.0
1979-03-02 04:03:14.170 ,2,1,0.,12.0,0.,12.0,0.,12.0,0.,12.0
1979-03-02 04:03:26.170 ,3,1,0.,12.0,1.,12.0,0.,12.0,0.,12.0
1979-03-02 04:03:38.170 ,3,1,0.,12.0,0.,12.0,0.,12.0,0.,12.0
1979-03-02 04:03:50.170 ,4,1,0.,12.0,0.,12.0,0.,12.0,0.,12.0
1979-03-02 04:04:02.170 ,4,1,0.,12.0,1.,12.0,0.,12.0,0.,12.0
1979-03-02 04:04:14.170 ,5,1,1.,12.0,0.,12.0,0.,12.0,0.,12.0
1979-03-02 04:04:26.170 ,5,1,0.,12.0,1.,12.0,0.,12.0,0.,12.0
1979-03-02 04:04:38.170 ,6,1,0.,12.0,1.,12.0,0.,12.0,0.,12.0
1979-03-02 04:04:50.170 ,6,1,0.,12.0,0.,12.0,0.,12.0,0.,12.0
1979-03-02 04:05:02.170 ,7,1,0.,12.0,2.,12.0,0.,12.0,0.,12.0
1979-03-02 04:05:14.170 ,7,1,0.,12.0,12.,12.0,0.,12.0,0.,12.0
1979-03-02 04:05:26.170 ,7,1,0.,12.0,17.,12.0,0.,12.0,0.,12.0
1979-03-02 04:05:38.170 ,7,1,0.,12.0,10.,12.0,0.,12.0,0.,12.0
1979-03-02 04:05:50.170 ,6,1,0.,12.0,18.,12.0,0.,12.0,0.,12.0
1979-03-02 04:06:02.170 ,6,1,0.,12.0,3.,12.0,0.,12.0,0.,12.0
1979-03-02 04:06:14.170 ,5,1,1.,12.0,0.,12.0,0.,12.0,0.,12.0
1979-03-02 04:06:26.170 ,5,1,2.,12.0,2.,12.0,0.,12.0,0.,12.0
1979-03-02 04:06:38.170 ,4,1,0.,12.0,1.,12.0,0.,12.0,0.,12.0
1979-03-02 04:06:50.170 ,4,1,0.,12.0,0.,12.0,0.,12.0,0.,12.0
1979-03-02 04:07:02.170 ,3,1,1.,12.0,2.,12.0,0.,12.0,0.,12.0
1979-03-02 04:07:14.170 ,3,1,1.,12.0,0.,12.0,0.,12.0,0.,12.0
1979-03-02 04:07:26.170 ,2,1,1.,12.0,0.,12.0,0.,12.0,0.,12.0
1979-03-02 04:07:38.170 ,2,1,0.,12.0,0.,12.0,0.,12.0,0.,12.0
1979-03-02 04:07:50.170 ,1,1,0.,12.0,0.,12.0,0.,12.0,0.,12.0
1979-03-02 04:08:02.170 ,1,1,0.,12.0,0.,12.0,0.,12.0,0.,12.0
1979-03-02 04:08:14.170 ,0,1,0.,12.0,1.,12.0,0.,12.0,0.,12.0
1979-03-02 04:08:26.170 ,0,1,0.,12.0,0.,12.0,0.,12.0,0.,12.0
1979-03-02 04:08:38.170 ,0,1,0.,12.0,1.,12.0,0.,12.0,0.,12.0
1979-03-02 04:08:50.170 ,0,1,0.,12.0,0.,12.0,0.,12.0,0.,12.0
1979-03-02 04:09:02.170 ,1,1,0.,12.0,0.,12.0,0.,12.0,0.,12.0
1979-03-02 04:09:14.170 ,1,1,0.,12.0,0.,12.0,0.,12.0,0.,12.0
1979-03-02 04:09:26.170 ,2,1,0.,12.0,2.,12.0,0.,12.0,0.,12.0
1979-03-02 04:09:38.170 ,2,1,0.,12.0,0.,12.0,0.,12.0,0.,12.0
1979-03-02 04:09:50.170 ,3,1,1.,12.0,1.,12.0,0.,12.0,0.,12.0
1979-03-02 04:10:02.170 ,3,1,0.,12.0,1.,12.0,0.,12.0,0.,12.0
1979-03-02 04:10:14.170 ,4,1,0.,12.0,0.,12.0,0.,12.0,0.,12.0
1979-03-02 04:10:26.170 ,4,1,0.,12.0,2.,12.0,0.,12.0,0.,12.0
1979-03-02 04:10:38.170 ,5,1,0.,12.0,2.,12.0,0.,12.0,0.,12.0
1979-03-02 04:10:50.170 ,5,1,0.,12.0,2.,12.0,0.,12.0,0.,12.0
1979-03-02 04:11:02.170 ,6,1,0.,12.0,1.,12.0,0.,12.0,0.,12.0
1979-03-02 04:11:14.170 ,6,1,0.,12.0,2.,12.0,0.,12.0,0.,12.0
1979-03-02 04:11:26.170 ,7,1,0.,12.0,0.,12.0,0.,12.0,0.,12.0
1979-03-02 04:11:38.170 ,7,1,0.,12.0,9.,12.0,0.,12.0,0.,12.0
1979-03-02 04:11:50.170 ,7,1,0.,12.0,11.,12.0,0.,12.0,0.,12.0
1979-03-02 04:12:02.170 ,7,1,0.,12.0,13.,12.0,0.,12.0,0.,12.0
1979-03-02 04:12:14.170 ,6,1,0.,12.0,14.,12.0,0.,12.0,0.,12.0
1979-03-02 04:12:26.170 ,6,1,0.,12.0,5.,12.0,0.,12.0,0.,12.0
1979-03-02 04:12:38.170 ,5,1,0.,12.0,1.,12.0,0.,12.0,0.,12.0
1979-03-02 04:12:50.170 ,5,1,1.,12.0,0.,12.0,0.,12.0,0.,12.0
1979-03-02 04:13:02.170 ,4,1,0.,12.0,1.,12.0,0.,12.0,0.,12.0
1979-03-02 04:13:14.170 ,4,1,0.,12.0,0.,12.0,0.,12.0,0.,12.0
1979-03-02 04:13:26.170 ,3,1,0.,12.0,2.,12.0,0.,12.0,0.,12.0
1979-03-02 04:13:38.170 ,3,1,0.,12.0,1.,12.0,0.,12.0,0.,12.0
1979-03-02 04:13:50.170 ,2,1,1.,12.0,1.,12.0,0.,12.0,0.,12.0
1979-03-02 04:14:02.170 ,2,1,0.,12.0,0.,12.0,0.,12.0,0.,12.0
1979-03-02 04:14:14.170 ,1,1,0.,12.0,1.,12.0,0.,12.0,0.,12.0
1979-03-02 04:14:26.170 ,1,1,0.,12.0,1.,12.0,0.,12.0,0.,12.0
1979-03-02 04:14:38.170 ,0,1,0.,12.0,1.,12.0,0.,12.0,0.,12.0
1979-03-02 04:14:50.170 ,0,1,0.,12.0,0.,12.0,0.,12.0,0.,12.0
1979-03-02 04:15:02.170 ,0,1,0.,12.0,1.,12.0,0.,12.0,0.,12.0
1979-03-02 04:15:14.170 ,0,1,0.,12.0,1.,12.0,0.,12.0,0.,12.0
1979-03-02 04:15:26.170 ,1,1,0.,12.0,0.,12.0,0.,12.0,0.,12.0
1979-03-02 04:15:38.170 ,1,1,0.,12.0,0.,12.0,0.,12.0,0.,12.0
1979-03-02 04:15:50.170 ,2,1,0.,12.0,1.,12.0,0.,12.0,0.,12.0
1979-03-02 04:16:02.170 ,2,1,0.,12.0,2.,12.0,0.,12.0,0.,12.0
1979-03-02 04:16:14.170 ,3,1,0.,12.0,0.,12.0,0.,12.0,0.,12.0
1979-03-02 04:16:26.170 ,3,1,0.,12.0,1.,12.0,0.,12.0,0.,12.0
1979-03-02 04:16:38.170 ,4,1,0.,12.0,0.,12.0,0.,12.0,0.,12.0
1979-03-02 04:16:50.170 ,4,1,0.,12.0,0.,12.0,0.,12.0,0.,12.0
1979-03-02 04:17:02.170 ,5,1,0.,12.0,1.,12.0,0.,12.0,0.,12.0